Regional Weather Roundup
Issued by NWS

Home | Current Version | Previous Version | Graphics & Text | Print | Product List | Glossary On
Versions: 1 2 3 4 5 6 7 8 9 10 11 12 13 14 15 16 17 18 19 20 21 22 23 24 25 26 27 28 29 30 31 32 33 34 35 36 37 38 39 40 41 42 43 44 45 46 47 48 49 50
000
ASUS43 KLSX 031159
RWRMO

WEATHER SUMMARY FOR MISSOURI
NATIONAL WEATHER SERVICE SPRINGFIELD MO
700 AM CDT SUN MAY 03 2015

NOTE: "FAIR" INDICATES FEW OR NO CLOUDS BELOW 12,000 FEET WITH NO
       SIGNIFICANT WEATHER AND/OR OBSTRUCTIONS TO VISIBILITY.
       CURRENT SKY AND/OR WEATHER CONDITIONS ARE NOT AVAILABLE FOR
       CHILLICOTHE AND FARMINGTON.

MOZ001>031-035>038-043-044-053-054-031300-
...NORTHERN AND WESTERN MISSOURI...

CITY           SKY/WX    TMP DP  RH WIND       PRES   REMARKS
KANSAS CTY INT LGT RAIN  61  55  81 S14       29.85S
6HR MIN TEMP:  61; 6HR MAX TEMP:  67; 6HR PCP: TRACE;

KANSAS C DTWN  CLOUDY    65  52  62 SW12      29.86F
6HR MIN TEMP:  65; 6HR MAX TEMP:  69;

LEE`S SUMMIT   CLOUDY    62  52  69 S13       29.89F
6HR MIN TEMP:  62; 6HR MAX TEMP:  66;

ST JOSEPH      CLOUDY    62  54  74 CALM      29.84S
6HR MIN TEMP:  58; 6HR MAX TEMP:  67;

CHILLICOTHE      N/A     64  52  64 S6        29.90S
6HR MIN TEMP:  58; 6HR MAX TEMP:  66;

KIRKSVILLE     MOCLDY    59  52  77 S10       29.92S
6HR MIN TEMP:  53; 6HR MAX TEMP:  59;


$$
MOZ066>068-077>081-088>096-101>105-031300-
...SOUTHWEST MISSOURI...

CITY           SKY/WX    TMP DP  RH WIND       PRES   REMARKS
SPRINGFIELD    MOCLDY    57  49  74 SE12      29.99R
6HR MIN TEMP:  56; 6HR MAX TEMP:  60;

JOPLIN         PTCLDY    60  51  72 S10       29.96R
6HR MIN TEMP:  59; 6HR MAX TEMP:  63;


$$
MOZ032>034-039>042-045>050-055>058-069>072-031300-
...CENTRAL MISSOURI...

CITY           SKY/WX    TMP DP  RH WIND       PRES   REMARKS
COLUMBIA       MOCLDY    58  48  69 S8        29.97R
6HR MIN TEMP:  56; 6HR MAX TEMP:  62;

JEFFERSON CITY MOCLDY    60  46  59 SE5       29.98R
6HR MIN TEMP:  59; 6HR MAX TEMP:  65;

ROLLA          CLOUDY    59  46  62 S10       29.99R
6HR MIN TEMP:  59; 6HR MAX TEMP:  65;

SEDALIA        MOCLDY    62  50  64 S12G20    29.96R
6HR MIN TEMP:  58; 6HR MAX TEMP:  62;

WHITEMAN AFB   MOCLDY    58  52  80 S8        29.93S
OSAGE BEACH    CLOUDY    57  46  67 S7        29.99R

$$
MOZ051-052-059>065-031300-
...EAST CENTRAL MISSOURI...

CITY           SKY/WX    TMP DP  RH WIND       PRES   REMARKS
ST LOUIS INTL  PTSUNNY   64  43  46 S7        30.01R
6HR MIN TEMP:  64; 6HR MAX TEMP:  69;

SPIRIT OF STL  MOCLDY    59  47  64 CALM      29.99R
6HR MIN TEMP:  56; 6HR MAX TEMP:  66;

ST CHARLES     MOSUNNY   58  49  72 E6        30.00R
6HR MIN TEMP:  57; 6HR MAX TEMP:  66; 6HR PCP: TRACE;


$$
MOZ072>076-082>087-097>100-106>115-031300-
...SOUTH CENTRAL AND SOUTHEAST MISSOURI...

CITY           SKY/WX    TMP DP  RH WIND       PRES   REMARKS
CAPE GIRARDEAU MOSUNNY   56  50  80 CALM      30.06R
6HR MIN TEMP:  52; 6HR MAX TEMP:  58;

FARMINGTON     PTCLDY    55  45  67 SE3       30.07R
6HR MIN TEMP:  55; 6HR MAX TEMP:  61;

POPLAR BLUFF   CLOUDY    56  52  86 CALM      30.04R
6HR MIN TEMP:  54; 6HR MAX TEMP:  57;

WEST PLAINS    MOCLDY    59  40  49 S5        30.04R
6HR MIN TEMP:  58; 6HR MAX TEMP:  64;


$$



USA.gov is the U.S. government's official web portal to all federal, state and local government web resources and services.